TIANMU-1 11

Last updated on Sun Oct 26 2025 00:02:30 GMT+0000 (Coordinated Universal Time)

1 58645U 23205A 25298.55905731 .00008004 00000+0 33504-3 0 9990 2 58645 97.3652 319.0454 0011314 109.3191 250.9270 15.23764867101750
UTC large
Height (km)
Speed (km/s)
/
Latitude / Longitude
Inclination (degrees)
Orbital Period (minutes)
Azimuth
Elevation
Range (km)
Doppler Factor

Next 0 passes for location: London (51.5072 / 0.1276)

Sorry there are no passes over London.